When you browse on this site, cookies collect data to enhance your experience and personalize the content and advertising you see.
Visit our Privacy Policy to learn more. By continuing to use the site, you agree to this use of cookies and data.
  • Em Portugal
  • Lista de países
  • Para 7 dias
  • Temperatura da água
  • Mapas de satélite
  • Mapa do tempo
  • Widgets de tempo
  • user-avatar
    Iniciar Sessão

    Previsão horária em Matlak

    Hoje, 21 Março, Quinta-feira

    Tempo Temperatura Precipitação Vento Pressão Humidade
    00:00 +3°C° 0 mm 6 m/s 754 mmHg 72%
    01:00 +3°C° 0 mm 6 m/s 754 mmHg 79%
    02:00 +4°C° 0 mm 4 m/s 754 mmHg 87%
    03:00 +4°C° 0 mm 4 m/s 754 mmHg 89%
    04:00 +4°C° 0 mm 4 m/s 754 mmHg 91%
    05:00 +3°C° 0 mm 4 m/s 754 mmHg 94%
    06:00 +3°C° 0 mm 4 m/s 754 mmHg 92%
    07:00 +3°C° 0 mm 4 m/s 755 mmHg 90%
    08:00 +3°C° 0 mm 4 m/s 755 mmHg 87%
    09:00 +4°C° 0 mm 4 m/s 755 mmHg 82%
    10:00 +5°C° 0 mm 5 m/s 755 mmHg 77%
    11:00 +6°C° 0 mm 5 m/s 755 mmHg 71%
    12:00 +7°C° 0 mm 5 m/s 755 mmHg 68%
    13:00 +8°C° 0 mm 5 m/s 755 mmHg 65%
    14:00 +8°C° 0 mm 5 m/s 755 mmHg 62%
    15:00 +8°C° 0 mm 5 m/s 755 mmHg 66%
    16:00 +8°C° 0 mm 5 m/s 754 mmHg 70%
    17:00 +8°C° 0 mm 4 m/s 754 mmHg 74%
    18:00 +8°C° 0.1 mm 5 m/s 754 mmHg 77%
    19:00 +8°C° 0.1 mm 5 m/s 754 mmHg 81%
    20:00 +8°C° 0.1 mm 5 m/s 754 mmHg 84%
    21:00 +8°C° 0.1 mm 6 m/s 754 mmHg 86%
    22:00 +7°C° 0.1 mm 6 m/s 753 mmHg 87%
    23:00 +7°C° 0.1 mm 6 m/s 753 mmHg 89%

    Amanhã, 22 Março, Sexta-feira

    Tempo Temperatura Precipitação Vento Pressão Humidade
    00:00 +7°C° 0.1 mm 6 m/s 753 mmHg 89%
    01:00 +7°C° 0.1 mm 6 m/s 753 mmHg 89%
    02:00 +7°C° 0.1 mm 6 m/s 753 mmHg 90%
    03:00 +7°C° 0 mm 6 m/s 753 mmHg 89%
    04:00 +7°C° 0 mm 6 m/s 754 mmHg 89%
    05:00 +7°C° 0 mm 6 m/s 754 mmHg 89%
    06:00 +5°C° 0 mm 6 m/s 755 mmHg 89%
    07:00 +5°C° 0 mm 6 m/s 755 mmHg 89%
    08:00 +6°C° 0 mm 5 m/s 756 mmHg 88%
    09:00 +5°C° 0 mm 6 m/s 757 mmHg 74%
    10:00 +7°C° 0 mm 6 m/s 757 mmHg 61%
    11:00 +7°C° 0 mm 6 m/s 758 mmHg 47%
    12:00 +7°C° 0 mm 6 m/s 758 mmHg 43%
    13:00 +8°C° 0 mm 5 m/s 758 mmHg 40%
    14:00 +8°C° 0 mm 5 m/s 759 mmHg 36%
    15:00 +8°C° 0 mm 5 m/s 758 mmHg 37%
    16:00 +7°C° 0 mm 5 m/s 758 mmHg 38%
    17:00 +7°C° 0 mm 5 m/s 758 mmHg 40%
    18:00 +6°C° 0 mm 4 m/s 758 mmHg 46%
    19:00 +5°C° 0 mm 3 m/s 758 mmHg 52%
    20:00 +4°C° 0 mm 2 m/s 758 mmHg 58%
    21:00 +4°C° 0 mm 2 m/s 758 mmHg 60%
    22:00 +3°C° 0 mm 2 m/s 758 mmHg 62%
    23:00 +4°C° 0 mm 1 m/s 758 mmHg 64%

    Depois de amanhã, 23 Março, Sábado

    Tempo Temperatura Precipitação Vento Pressão Humidade
    00:00 +3°C° 0 mm 1 m/s 758 mmHg 64%
    01:00 +3°C° 0 mm 1 m/s 758 mmHg 64%
    02:00 +2°C° 0 mm 0 m/s 758 mmHg 64%
    03:00 +2°C° 0 mm 1 m/s 758 mmHg 64%
    04:00 +2°C° 0 mm 1 m/s 757 mmHg 63%
    05:00 +2°C° 0 mm 1 m/s 757 mmHg 62%
    06:00 +2°C° 0 mm 2 m/s 757 mmHg 61%
    07:00 +2°C° 0 mm 2 m/s 756 mmHg 60%
    08:00 +2°C° 0 mm 3 m/s 756 mmHg 58%
    09:00 +3°C° 0 mm 3 m/s 756 mmHg 55%
    10:00 +5°C° 0 mm 4 m/s 755 mmHg 51%
    11:00 +7°C° 0 mm 4 m/s 755 mmHg 47%
    12:00 +8°C° 0 mm 4 m/s 754 mmHg 46%
    13:00 +9°C° 0 mm 5 m/s 754 mmHg 46%
    14:00 +12°C° 0 mm 5 m/s 753 mmHg 46%
    15:00 +12°C° 0 mm 5 m/s 753 mmHg 50%
    16:00 +12°C° 0 mm 5 m/s 752 mmHg 55%
    17:00 +12°C° 0 mm 4 m/s 751 mmHg 59%
    18:00 +11°C° 0.1 mm 4 m/s 751 mmHg 66%
    19:00 +11°C° 0.1 mm 4 m/s 751 mmHg 74%
    20:00 +10°C° 0.1 mm 3 m/s 751 mmHg 81%
    21:00 +8°C° 0.1 mm 4 m/s 751 mmHg 84%
    22:00 +7°C° 0.1 mm 4 m/s 751 mmHg 88%
    23:00 +6°C° 0.1 mm 5 m/s 751 mmHg 91%

    24 Março, Domingo

    Tempo Temperatura Precipitação Vento Pressão Humidade
    00:00 +5°C° 0 mm 5 m/s 751 mmHg 89%
    01:00 +3°C° 0 mm 5 m/s 751 mmHg 87%
    02:00 +3°C° 0 mm 5 m/s 751 mmHg 85%
    03:00 +3°C° 0 mm 4 m/s 751 mmHg 83%
    04:00 +1°C° 0 mm 4 m/s 751 mmHg 80%
    05:00 +1°C° 0 mm 4 m/s 752 mmHg 77%
    06:00 +1°C° 0 mm 4 m/s 752 mmHg 77%
    07:00 +1°C° 0 mm 4 m/s 752 mmHg 77%
    08:00 +1°C° 0 mm 4 m/s 752 mmHg 77%
    09:00 +3°C° 0 mm 4 m/s 752 mmHg 70%
    10:00 +3°C° 0 mm 5 m/s 752 mmHg 64%
    11:00 +5°C° 0 mm 5 m/s 752 mmHg 58%
    12:00 +6°C° 0 mm 5 m/s 752 mmHg 56%
    13:00 +5°C° 0 mm 6 m/s 752 mmHg 53%
    14:00 +5°C° 0 mm 6 m/s 752 mmHg 50%
    15:00 +5°C° 0 mm 6 m/s 752 mmHg 52%
    16:00 +4°C° 0 mm 6 m/s 752 mmHg 54%
    17:00 +4°C° 0 mm 6 m/s 752 mmHg 56%
    18:00 +3°C° 0 mm 5 m/s 752 mmHg 62%
    19:00 +2°C° 0 mm 5 m/s 752 mmHg 68%
    20:00 +1°C° 0 mm 4 m/s 752 mmHg 74%
    21:00 0°C° 0 mm 4 m/s 752 mmHg 79%
    22:00 0°C° 0 mm 3 m/s 752 mmHg 83%
    23:00 0°C° 0 mm 3 m/s 752 mmHg 87%

    25 Março, Segunda-feira

    Tempo Temperatura Precipitação Vento Pressão Humidade
    00:00 -1°C° 0 mm 3 m/s 752 mmHg 90%
    01:00 -1°C° 0 mm 2 m/s 751 mmHg 92%
    02:00 -1°C° 0 mm 2 m/s 751 mmHg 94%
    03:00 -1°C° 0 mm 3 m/s 751 mmHg 94%
    04:00 -1°C° 0 mm 3 m/s 750 mmHg 94%
    05:00 -1°C° 0 mm 3 m/s 750 mmHg 94%
    06:00 -1°C° 0 mm 4 m/s 749 mmHg 91%
    07:00 -1°C° 0 mm 4 m/s 749 mmHg 88%
    08:00 0°C° 0 mm 4 m/s 749 mmHg 85%
    09:00 +1°C° 0.1 mm 5 m/s 748 mmHg 77%
    10:00 +2°C° 0.1 mm 6 m/s 747 mmHg 69%
    11:00 +4°C° 0.1 mm 6 m/s 746 mmHg 61%
    12:00 +3°C° 0.6 mm 6 m/s 746 mmHg 67%
    13:00 +2°C° 0.6 mm 7 m/s 745 mmHg 72%
    14:00 +2°C° 0.6 mm 7 m/s 744 mmHg 78%
    15:00 +2°C° 0.4 mm 6 m/s 744 mmHg 77%
    16:00 +2°C° 0.4 mm 6 m/s 744 mmHg 77%
    17:00 +2°C° 0.4 mm 5 m/s 743 mmHg 76%
    18:00 +1°C° 0 mm 5 m/s 743 mmHg 79%
    19:00 0°C° 0 mm 4 m/s 743 mmHg 82%
    20:00 0°C° 0 mm 3 m/s 743 mmHg 85%
    21:00 0°C° 0 mm 3 m/s 743 mmHg 86%
    22:00 -1°C° 0 mm 3 m/s 744 mmHg 87%
    23:00 -1°C° 0 mm 3 m/s 744 mmHg 88%

    26 Março, Terça-feira

    Tempo Temperatura Precipitação Vento Pressão Humidade
    00:00 -2°C° 0 mm 3 m/s 744 mmHg 89%
    01:00 -2°C° 0 mm 3 m/s 745 mmHg 89%
    02:00 -2°C° 0 mm 3 m/s 745 mmHg 90%
    03:00 -2°C° 0 mm 3 m/s 746 mmHg 91%
    04:00 -2°C° 0 mm 3 m/s 747 mmHg 92%
    05:00 -2°C° 0 mm 3 m/s 747 mmHg 92%
    06:00 -2°C° 0 mm 4 m/s 748 mmHg 91%
    07:00 -1°C° 0 mm 4 m/s 749 mmHg 90%
    08:00 0°C° 0 mm 5 m/s 750 mmHg 88%
    09:00 +1°C° 0 mm 5 m/s 751 mmHg 82%
    10:00 +2°C° 0 mm 5 m/s 751 mmHg 76%
    11:00 +3°C° 0 mm 5 m/s 752 mmHg 70%
    12:00 +5°C° 0 mm 5 m/s 752 mmHg 66%
    13:00 +5°C° 0 mm 5 m/s 752 mmHg 62%
    14:00 +6°C° 0 mm 5 m/s 752 mmHg 58%
    15:00 +4°C° 0 mm 6 m/s 752 mmHg 62%
    16:00 +4°C° 0 mm 6 m/s 752 mmHg 65%
    17:00 +3°C° 0 mm 6 m/s 752 mmHg 69%
    18:00 +2°C° 0 mm 6 m/s 752 mmHg 74%
    19:00 +1°C° 0 mm 5 m/s 752 mmHg 79%
    20:00 -1°C° 0 mm 4 m/s 752 mmHg 84%
    21:00 -1°C° 0 mm 4 m/s 752 mmHg 83%
    22:00 -1°C° 0 mm 4 m/s 752 mmHg 82%
    23:00 -1°C° 0 mm 4 m/s 752 mmHg 81%
    Mostrar mais